Lid_Strength_Index
-1 -1 -1 -1 -1 -1 -1 -1 -1 1 5 7 7 9 8 9 7 5 7 7 7 10 10 11 10 11 12 12
-1 -1 -1 -1 -1 -1 -1 -1 -0 2 7 3 7 8 8 9 7 6 5 5 7 8 9 11 12 14 14 16
-1 -1 -1 -1 -1 -1 -1 -0 2 6 9 5 9 8 8 8 8 8 7 5 6 9 10 14 16 15 18 16
-1 -1 -1 -1 -1 -1 2 1 3 8 7 10 8 8 9 8 9 9 9 9 11 13 14 16 18 17 17 16
-1 -1 -0 3 6 6 5 7 7 8 8 7 7 8 8 9 10 11 13 12 14 16 14 14 14 15 15 15
-1 -1 2 6 6 6 9 5 6 7 7 7 8 8 7 11 12 14 12 13 15 13 12 12 13 13 14 15
-1 2 6 5 3 4 11 8 6 7 8 8 9 10 7 11 12 13 13 15 13 11 11 12 12 13 14 13
4 5 6 5 3 5 14 11 9 8 8 7 10 8 8 10 12 14 13 14 11 11 11 12 11 14 11 11
5 5 3 3 4 7 18 11 8 6 8 9 9 9 8 9 12 12 12 14 12 12 12 11 10 12 10 11
5 4 3 4 7 14 17 11 9 10 10 10 9 8 10 9 9 11 11 11 9 10 10 9 10 9 12 13
5 4 4 7 15 15 10 11 11 10 11 11 10 9 11 12 13 15 15 12 11 11 9 11 10 12 15 18
4 4 6 10 16 11 11 8 9 10 11 10 10 10 11 13 13 13 15 15 15 12 11 12 13 13 15 18
4 5 9 14 14 12 10 9 9 11 12 10 10 11 13 13 14 14 15 16 16 12 12 12 12 14 16 14
5 7 10 12 12 10 9 9 12 11 12 12 12 13 13 12 13 13 14 16 18 14 13 12 12 14 13 17
6 9 13 13 11 9 9 10 11 11 12 12 13 14 13 12 12 13 14 16 16 17 15 16 16 15 16 17
11 13 12 11 9 10 9 10 10 11 12 12 13 14 13 13 12 12 15 15 17 18 17 15 14 15 16 16
13 14 13 11 10 10 11 11 11 11 12 13 15 13 13 11 11 12 15 15 18 20 18 16 15 17 16 15